Flag for USA

Past Weather in Boise, Idaho, USA — November 2018

Now
81 °F

Sunny.


Feels Like: 80 °F
Forecast: 87 / 58 °F
Wind: 9 mph from Northwest

Location: Boise Air Terminal

Current Time: Jul 4, 2020 at 1:50:56 pm

Latest Report: Jul 4, 2020 at 12:53 pm


Visibility: 10 mi

Pressure: 29.98 "Hg (27.30 "Hg at 822m altitude)

Humidity: 32%

Dew Point: 48 °F

Location of BoiseLocation

November 2018 Weather in Boise — Graph

°F

High & Low Weather Summary for November 2018

 TemperatureHumidityPressure
High60 °F (Nov 2, 2:53 pm)100% (Nov 28, 1:53 am)30.74 "Hg (Nov 28, 1:53 am)
Low21 °F (Nov 11, 6:53 am)22% (Nov 12, 3:53 pm)29.58 "Hg (Nov 29, 4:10 pm)
Average39 °F66%30.17 "Hg
* Reported Nov 1 12:53 am — Nov 30 11:53 pm, Boise. Weather by CustomWeather, © 2020

Note: Actual official high and low records may vary slightly from our data, if they occured in-between our weather recording intervals... More about our weather records

Boise Weather History for November 1, 2018

Scroll right to see more
 ConditionsComfort  
Time TempWeatherWind HumidityBarometerVisibility
12:53 am
Thu, Nov 1
45 °FOvercast.3 mph90%30.16 "Hg10 mi
1:53 am45 °FMostly cloudy.No wind90%30.17 "Hg10 mi
2:53 am45 °FMostly cloudy.6 mph90%30.18 "Hg10 mi
4:01 am44 °FMostly cloudy.5 mph93%30.18 "Hg10 mi
4:10 am44 °FMostly cloudy.3 mph93%30.17 "Hg10 mi
4:43 am44 °FFog.3 mph93%30.17 "Hg2 mi
5:10 am44 °FFog.3 mph93%30.17 "Hg10 mi
5:18 am44 °FFog.3 mph93%30.17 "Hg10 mi
5:53 am44 °FFog.3 mph89%30.19 "Hg10 mi
6:53 am44 °FFog.3 mph89%30.19 "Hg10 mi
7:53 am43 °FFog.No wind93%30.22 "Hg10 mi
8:53 am43 °FFog.3 mph93%30.22 "Hg8 mi
9:53 am44 °FFog.No wind89%30.23 "Hg9 mi
10:53 am46 °FFog.No wind86%30.24 "Hg10 mi
11:53 am51 °FFog.No wind74%30.24 "Hg10 mi
12:53 pm53 °FOvercast.5 mph69%30.24 "Hg10 mi
1:53 pm55 °FOvercast.No wind67%30.23 "Hg10 mi
2:53 pm58 °FScattered clouds.3 mph60%30.21 "Hg10 mi
3:53 pm59 °FPartly sunny.3 mph58%30.19 "Hg10 mi
4:53 pm59 °FPartly sunny.No wind60%30.19 "Hg10 mi
5:53 pm59 °FMore clouds than sun.No wind60%30.18 "Hg10 mi
6:53 pm57 °FMostly cloudy.3 mph64%30.18 "Hg10 mi
7:53 pm55 °FPassing clouds.No wind69%30.19 "Hg10 mi
8:53 pm51 °FPassing clouds.3 mph74%30.19 "Hg10 mi
9:53 pm50 °FClear.7 mph80%30.19 "Hg10 mi
10:53 pm49 °FClear.6 mph80%30.19 "Hg10 mi
11:53 pm47 °FClear.3 mph86%30.18 "Hg10 mi
Weather by CustomWeather, © 2020

See weather overview